| time (UTC) | temp F | wind direction | speed MPH | gust MPH | rain 1hr in | rain 24hr in | rain mn in | humidity % | barometer mb |
| 20260505193010 | 82 | 273 | 1.0 | 6.0 | 0.00 | 0.00 | 0.00 | 35 | 1008.2 |
| 20260505191508 | 81 | 202 | 2.0 | 5.0 | 0.00 | 0.00 | 0.00 | 36 | 1008.3 |
| 20260505190005 | 82 | 158 | 0.0 | 7.0 | 0.00 | 0.00 | 0.00 | 36 | 1008.5 |
| 20260505184504 | 82 | 207 | 1.0 | 8.0 | 0.00 | 0.00 | 0.00 | 36 | 1008.6 |
| 20260505183102 | 82 | 243 | 1.0 | 12.0 | 0.00 | 0.00 | 0.00 | 41 | 1008.8 |
| 20260505181557 | 80 | 271 | 2.0 | 12.0 | 0.00 | 0.00 | 0.00 | 39 | 1008.8 |
| 20260505180107 | 80 | 216 | 3.0 | 10.0 | 0.00 | 0.00 | 0.00 | 38 | 1009.0 |
| 20260505174601 | 80 | 233 | 2.0 | 6.0 | 0.00 | 0.00 | 0.00 | 41 | 1009.2 |
| 20260505173049 | 79 | 268 | 2.0 | 8.0 | 0.00 | 0.00 | 0.00 | 41 | 1009.2 |
| 20260505171547 | 78 | 210 | 2.0 | 13.0 | 0.00 | 0.00 | 0.00 | 42 | 1009.4 |
| 20260505170044 | 78 | 200 | 2.0 | 7.0 | 0.00 | 0.00 | 0.00 | 42 | 1009.7 |
| 20260505164545 | 78 | 200 | 2.0 | 8.0 | 0.00 | 0.00 | 0.00 | 45 | 1010.1 |
| 20260505163039 | 78 | 212 | 0.0 | 6.0 | 0.00 | 0.00 | 0.00 | 47 | 1010.3 |
| 20260505161538 | 77 | 256 | 0.0 | 6.0 | 0.00 | 0.00 | 0.00 | 47 | 1010.3 |
| 20260505153033 | 76 | 257 | 3.0 | 6.0 | 0.00 | 0.00 | 0.00 | 48 | 1010.4 |
| 20260505151532 | 75 | 206 | 0.0 | 6.0 | 0.00 | 0.00 | 0.00 | 51 | 1010.3 |
| 20260505124559 | 66 | 227 | 0.0 | 4.0 | 0.00 | 0.00 | 0.00 | 63 | 1011.4 |
| 20260505123103 | 64 | 211 | 0.0 | 3.0 | 0.00 | 0.00 | 0.00 | 66 | 1011.5 |
| 20260505121555 | 63 | 235 | 0.0 | 2.0 | 0.00 | 0.00 | 0.00 | 68 | 1011.5 |
| 20260505120051 | 62 | 251 | 0.0 | 3.0 | 0.00 | 0.00 | 0.00 | 69 | 1011.3 |
| 20260505114548 | 61 | 230 | 0.0 | 1.0 | 0.00 | 0.00 | 0.00 | 71 | 1011.2 |
| 20260505113048 | 60 | 159 | 0.0 | 2.0 | 0.00 | 0.00 | 0.00 | 72 | 1010.9 |
| 20260505111546 | 60 | 204 | 0.0 | 1.0 | 0.00 | 0.00 | 0.00 | 72 | 1010.8 |
| 20260505101540 | 58 | 176 | 0.0 | 0.0 | 0.00 | 0.00 | 0.00 | 75 | 1010.1 |
| 20260505100038 | 58 | 235 | 0.0 | 2.0 | 0.00 | 0.00 | 0.00 | 74 | 1010.1 |
| 20260505094536 | 59 | 226 | 0.0 | 1.0 | 0.00 | 0.00 | 0.00 | 73 | 1010.0 |
| 20260505093038 | 59 | 144 | 0.0 | 1.0 | 0.00 | 0.00 | 0.00 | 73 | 1010.0 |
| 20260505091540 | 59 | 135 | 0.0 | 4.0 | 0.00 | 0.00 | 0.00 | 73 | 1009.8 |
| 20260505090034 | 59 | 232 | 0.0 | 1.0 | 0.00 | 0.00 | 0.00 | 73 | 1009.9 |
| 20260505084533 | 59 | 208 | 0.0 | 1.0 | 0.00 | 0.00 | 0.00 | 73 | 1010.0 |
| 20260505083033 | 59 | 227 | 0.0 | 1.0 | 0.00 | 0.00 | 0.00 | 72 | 1009.8 |
| 20260505081528 | 60 | 227 | 0.0 | 1.0 | 0.00 | 0.00 | 0.00 | 70 | 1009.7 |
| 20260505080027 | 60 | 223 | 0.0 | 1.0 | 0.00 | 0.00 | 0.00 | 69 | 1009.7 |
| 20260505074526 | 60 | 157 | 0.0 | 2.0 | 0.00 | 0.00 | 0.00 | 69 | 1009.7 |
| 20260505073027 | 60 | 211 | 0.0 | 1.0 | 0.00 | 0.00 | 0.00 | 70 | 1009.6 |
| 20260505071525 | 60 | 211 | 0.0 | 1.0 | 0.00 | 0.00 | 0.00 | 70 | 1009.4 |
| 20260505070022 | 60 | 218 | 0.0 | 1.0 | 0.00 | 0.00 | 0.00 | 70 | 1009.6 |
| 20260505064520 | 61 | 131 | 0.0 | 1.0 | 0.00 | 0.00 | 0.00 | 69 | 1009.7 |
| 20260505063017 | 62 | 131 | 0.0 | 1.0 | 0.00 | 0.00 | 0.00 | 67 | 1009.9 |
| 20260505061515 | 62 | 174 | 0.0 | 1.0 | 0.00 | 0.00 | 0.00 | 66 | 1010.0 |
| 20260505060017 | 62 | 150 | 0.0 | 1.0 | 0.00 | 0.00 | 0.00 | 65 | 1009.9 |
| 20260505054515 | 63 | 138 | 0.0 | 1.0 | 0.00 | 0.00 | 0.00 | 64 | 1010.0 |
| 20260505053013 | 63 | 146 | 0.0 | 2.0 | 0.00 | 0.00 | 0.00 | 63 | 1009.9 |
| 20260505051530 | 63 | 154 | 0.0 | 2.0 | 0.00 | 0.00 | 0.00 | 63 | 1010.0 |
| 20260505041505 | 62 | 192 | 0.0 | 2.0 | 0.00 | 0.00 | 0.00 | 61 | 1009.7 |
| 20260505040003 | 62 | 195 | 0.0 | 1.0 | 0.00 | 0.00 | 0.00 | 63 | 1009.8 |
| 20260505034502 | 62 | 200 | 0.0 | 2.0 | 0.00 | 0.00 | 0.00 | 62 | 1009.7 |
| 20260505033002 | 62 | 218 | 0.0 | 2.0 | 0.00 | 0.00 | 0.00 | 61 | 1009.6 |
| 20260505031502 | 62 | 141 | 0.0 | 2.0 | 0.00 | 0.00 | 0.00 | 59 | 1009.6 |
| 20260505024559 | 63 | 135 | 0.0 | 2.0 | 0.00 | 0.00 | 0.00 | 58 | 1009.6 |
| 20260505023058 | 63 | 186 | 0.0 | 3.0 | 0.00 | 0.00 | 0.00 | 57 | 1009.8 |
| 20260505021558 | 63 | 186 | 0.0 | 3.0 | 0.00 | 0.00 | 0.00 | 57 | 1009.8 |
| 20260505020105 | 63 | 150 | 1.0 | 3.0 | 0.00 | 0.00 | 0.00 | 56 | 1009.4 |
| 20260505014558 | 63 | 192 | 0.0 | 4.0 | 0.00 | 0.00 | 0.00 | 56 | 1009.5 |
| 20260505013105 | 64 | 174 | 0.0 | 3.0 | 0.00 | 0.00 | 0.00 | 55 | 1009.6 |
| 20260505011600 | 64 | 222 | 0.0 | 2.0 | 0.00 | 0.00 | 0.00 | 55 | 1009.5 |
| 20260505010111 | 65 | 131 | 0.0 | 3.0 | 0.00 | 0.00 | 0.00 | 53 | 1009.3 |
| 20260505004555 | 66 | 118 | 1.0 | 7.0 | 0.00 | 0.00 | 0.00 | 51 | 1009.0 |
| 20260505003057 | 67 | 197 | 1.0 | 5.0 | 0.00 | 0.00 | 0.00 | 50 | 1009.1 |
| 20260505001602 | 68 | 95 | 0.0 | 11.0 | 0.00 | 0.00 | 0.00 | 47 | 1009.0 |
| 20260505000055 | 68 | 189 | 0.0 | 3.0 | 0.00 | 0.00 | 0.00 | 46 | 1008.9 |
| 20260504234552 | 69 | 218 | 0.0 | 5.0 | 0.00 | 0.00 | 0.00 | 45 | 1008.8 |
| 20260504233105 | 70 | 219 | 0.0 | 4.0 | 0.00 | 0.00 | 0.00 | 43 | 1008.8 |
| 20260504231551 | 70 | 195 | 0.0 | 4.0 | 0.00 | 0.00 | 0.00 | 43 | 1008.9 |
| 20260504230055 | 71 | 153 | 0.0 | 3.0 | 0.00 | 0.00 | 0.00 | 44 | 1008.9 |
| 20260504224551 | 71 | 208 | 1.0 | 3.0 | 0.00 | 0.00 | 0.00 | 43 | 1009.0 |
| 20260504223047 | 71 | 151 | 0.0 | 2.0 | 0.00 | 0.00 | 0.00 | 43 | 1009.0 |
| 20260504221546 | 72 | 208 | 0.0 | 5.0 | 0.00 | 0.00 | 0.00 | 43 | 1009.1 |
| 20260504220045 | 72 | 229 | 1.0 | 4.0 | 0.00 | 0.00 | 0.00 | 42 | 1009.2 |
| 20260504214553 | 72 | 323 | 1.0 | 5.0 | 0.00 | 0.00 | 0.00 | 41 | 1009.2 |
| 20260504213043 | 73 | 204 | 1.0 | 5.0 | 0.00 | 0.00 | 0.00 | 41 | 1009.2 |
| 20260504211542 | 73 | 81 | 0.0 | 3.0 | 0.00 | 0.00 | 0.00 | 40 | 1009.3 |
| 20260504210045 | 74 | 244 | 0.0 | 5.0 | 0.00 | 0.00 | 0.00 | 40 | 1009.2 |
| 20260504204547 | 75 | 231 | 0.0 | 7.0 | 0.00 | 0.00 | 0.00 | 38 | 1009.2 |
| 20260504203053 | 74 | 121 | 2.0 | 5.0 | 0.00 | 0.00 | 0.00 | 38 | 1009.3 |
| 20260504201538 | 75 | 231 | 1.0 | 5.0 | 0.00 | 0.00 | 0.00 | 40 | 1009.6 |
| 20260504200035 | 75 | 215 | 2.0 | 8.0 | 0.00 | 0.00 | 0.00 | 39 | 1010.0 |
| 20260504194535 | 74 | 150 | 1.0 | 8.0 | 0.00 | 0.00 | 0.00 | 37 | 1010.0 |